| time (UTC) | temp C | wind direction | speed KPH | gust KPH | rain 1hr cm | rain 24hr cm | rain mn cm | humidity % | barometer mb |
| 20260504212752 | 20 | 228 | 3.2 | 4.8 | 0.00 | 0.00 | 0.00 | 42 | 1007.9 |
| 20260504212248 | 20 | 171 | 1.6 | 1.6 | 0.00 | 0.00 | 0.00 | 45 | 1008.1 |
| 20260504211745 | 20 | 107 | 4.8 | 8.0 | 0.00 | 0.00 | 0.00 | 40 | 1007.9 |
| 20260504211241 | 20 | 227 | 3.2 | 3.2 | 0.00 | 0.00 | 0.00 | 42 | 1008.1 |
| 20260504210739 | 19 | 257 | 4.8 | 8.0 | 0.00 | 0.00 | 0.00 | 43 | 1007.8 |
| 20260504210236 | 19 | 235 | 3.2 | 4.8 | 0.00 | 0.00 | 0.00 | 42 | 1007.7 |
| 20260504205733 | 19 | 217 | 3.2 | 3.2 | 0.00 | 0.00 | 0.00 | 41 | 1007.8 |
| 20260504205231 | 20 | 185 | 3.2 | 3.2 | 0.00 | 0.00 | 0.00 | 40 | 1007.7 |
| 20260504204729 | 21 | 253 | 1.6 | 3.2 | 0.00 | 0.00 | 0.00 | 37 | 1007.5 |
| 20260504204227 | 20 | 299 | 0.0 | 1.6 | 0.00 | 0.00 | 0.00 | 42 | 1007.8 |
| 20260504203726 | 20 | 105 | 4.8 | 4.8 | 0.00 | 0.00 | 0.00 | 40 | 1007.8 |
| 20260504203223 | 20 | 263 | 1.6 | 1.6 | 0.00 | 0.00 | 0.00 | 41 | 1008.1 |
| 20260504202718 | 19 | 197 | 3.2 | 3.2 | 0.00 | 0.00 | 0.00 | 40 | 1007.6 |
| 20260504202215 | 20 | 259 | 4.8 | 4.8 | 0.00 | 0.00 | 0.00 | 40 | 1008.0 |
| 20260504201712 | 20 | 349 | 1.6 | 1.6 | 0.00 | 0.00 | 0.00 | 40 | 1007.8 |
| 20260504201210 | 21 | 135 | 4.8 | 8.0 | 0.00 | 0.00 | 0.00 | 36 | 1007.7 |
| 20260504200707 | 21 | 73 | 8.0 | 11.3 | 0.00 | 0.00 | 0.00 | 35 | 1007.9 |
| 20260504200203 | 20 | 260 | 3.2 | 3.2 | 0.00 | 0.00 | 0.00 | 40 | 1007.7 |
| 20260504195659 | 20 | 8 | 4.8 | 8.0 | 0.00 | 0.00 | 0.00 | 36 | 1007.8 |
| 20260504195155 | 21 | 225 | 4.8 | 8.0 | 0.00 | 0.00 | 0.00 | 35 | 1007.9 |
| 20260504194653 | 22 | 267 | 1.6 | 3.2 | 0.00 | 0.00 | 0.00 | 37 | 1007.6 |
| 20260504194148 | 21 | 348 | 3.2 | 4.8 | 0.00 | 0.00 | 0.00 | 38 | 1007.9 |
| 20260504193645 | 21 | 312 | 3.2 | 3.2 | 0.00 | 0.00 | 0.00 | 38 | 1007.8 |
| 20260504193143 | 21 | 359 | 3.2 | 4.8 | 0.00 | 0.00 | 0.00 | 35 | 1007.8 |
| 20260504192641 | 21 | 195 | 8.0 | 11.3 | 0.00 | 0.00 | 0.00 | 36 | 1008.0 |
| 20260504192139 | 20 | 161 | 1.6 | 3.2 | 0.00 | 0.00 | 0.00 | 36 | 1007.8 |
| 20260504191637 | 21 | 301 | 4.8 | 4.8 | 0.00 | 0.00 | 0.00 | 35 | 1007.7 |
| 20260504191133 | 20 | 334 | 3.2 | 4.8 | 0.00 | 0.00 | 0.00 | 37 | 1007.8 |
| 20260504190629 | 21 | 303 | 4.8 | 4.8 | 0.00 | 0.00 | 0.00 | 36 | 1007.9 |
| 20260504190126 | 21 | 94 | 3.2 | 4.8 | 0.00 | 0.00 | 0.00 | 40 | 1007.9 |
| 20260504185622 | 21 | 261 | 3.2 | 3.2 | 0.00 | 0.00 | 0.00 | 37 | 1007.9 |
| 20260504185119 | 20 | 207 | 4.8 | 8.0 | 0.00 | 0.00 | 0.00 | 37 | 1008.0 |
| 20260504184615 | 21 | 196 | 8.0 | 12.9 | 0.00 | 0.00 | 0.00 | 36 | 1008.4 |
| 20260504184110 | 20 | 224 | 8.0 | 11.3 | 0.00 | 0.00 | 0.00 | 40 | 1008.2 |
| 20260504183607 | 20 | 138 | 4.8 | 8.0 | 0.00 | 0.00 | 0.00 | 39 | 1008.3 |
| 20260504183105 | 20 | 237 | 8.0 | 12.9 | 0.00 | 0.00 | 0.00 | 36 | 1008.5 |
| 20260504182602 | 20 | 244 | 3.2 | 4.8 | 0.00 | 0.00 | 0.00 | 35 | 1008.4 |
| 20260504182100 | 21 | 142 | 0.0 | 1.6 | 0.00 | 0.00 | 0.00 | 34 | 1008.5 |
| 20260504181556 | 20 | 18 | 1.6 | 1.6 | 0.00 | 0.00 | 0.00 | 39 | 1008.3 |
| 20260504181054 | 20 | 43 | 6.4 | 8.0 | 0.00 | 0.00 | 0.00 | 34 | 1008.6 |
| 20260504180553 | 20 | 159 | 4.8 | 8.0 | 0.00 | 0.00 | 0.00 | 36 | 1008.6 |
| 20260504180052 | 20 | 230 | 11.3 | 17.7 | 0.00 | 0.00 | 0.00 | 35 | 1008.6 |
| 20260504175548 | 20 | 343 | 4.8 | 4.8 | 0.00 | 0.00 | 0.00 | 35 | 1008.8 |
| 20260504175045 | 20 | 250 | 3.2 | 4.8 | 0.00 | 0.00 | 0.00 | 37 | 1008.8 |
| 20260504174543 | 20 | 270 | 3.2 | 4.8 | 0.00 | 0.00 | 0.00 | 35 | 1008.6 |
| 20260504174040 | 19 | 227 | 4.8 | 8.0 | 0.00 | 0.00 | 0.00 | 36 | 1008.9 |
| 20260504173536 | 20 | 199 | 4.8 | 9.7 | 0.00 | 0.00 | 0.00 | 39 | 1009.0 |
| 20260504173034 | 20 | 257 | 3.2 | 4.8 | 0.00 | 0.00 | 0.00 | 37 | 1008.8 |
| 20260504172530 | 20 | 124 | 3.2 | 3.2 | 0.00 | 0.00 | 0.00 | 38 | 1009.0 |
| 20260504172027 | 20 | 339 | 6.4 | 8.0 | 0.00 | 0.00 | 0.00 | 34 | 1008.9 |
| 20260504171524 | 20 | 30 | 3.2 | 3.2 | 0.00 | 0.00 | 0.00 | 37 | 1008.8 |
| 20260504171021 | 19 | 193 | 4.8 | 4.8 | 0.00 | 0.00 | 0.00 | 34 | 1008.8 |
| 20260504170516 | 20 | 143 | 4.8 | 11.3 | 0.00 | 0.00 | 0.00 | 34 | 1008.9 |
| 20260504160437 | 18 | 170 | 9.7 | 12.9 | 0.00 | 0.00 | 0.00 | 35 | 1009.5 |
| 20260504150900 | 17 | 341 | 11.3 | 14.5 | 0.00 | 0.00 | 0.00 | 40 | 1010.3 |
| 20260504150358 | 17 | 220 | 11.3 | 16.1 | 0.00 | 0.00 | 0.00 | 41 | 1010.4 |
| 20260504141327 | 16 | 318 | 4.8 | 8.0 | 0.00 | 0.00 | 0.00 | 45 | 1010.2 |
| 20260504140824 | 16 | 257 | 6.4 | 14.5 | 0.00 | 0.00 | 0.00 | 44 | 1010.6 |
| 20260504140319 | 16 | 13 | 3.2 | 3.2 | 0.00 | 0.00 | 0.00 | 46 | 1010.5 |
| 20260504130748 | 15 | 23 | 1.6 | 1.6 | 0.00 | 0.00 | 0.00 | 51 | 1010.9 |
| 20260504130244 | 15 | 9 | 1.6 | 3.2 | 0.00 | 0.00 | 0.00 | 50 | 1010.7 |
| 20260504120208 | 11 | 275 | 1.6 | 1.6 | 0.00 | 0.00 | 0.00 | 66 | 1011.4 |
| 20260504110635 | 1 | 21 | 0.0 | 0.0 | 0.00 | 0.00 | 0.00 | 97 | 1011.3 |
| 20260504110131 | 0 | 99 | 0.0 | 0.0 | 0.00 | 0.00 | 0.00 | 97 | 1011.1 |
| 20260504100557 | -1 | 216 | 0.0 | 0.0 | 0.00 | 0.00 | 0.00 | 96 | 1011.1 |
| 20260504081951 | 0 | 216 | 0.0 | 0.0 | 0.00 | 0.00 | 0.00 | 93 | 1010.3 |
| 20260504081448 | 0 | 216 | 0.0 | 0.0 | 0.00 | 0.00 | 0.00 | 93 | 1010.2 |
| 20260504080943 | 0 | 216 | 0.0 | 0.0 | 0.00 | 0.00 | 0.00 | 93 | 1010.5 |
| 20260504080441 | 1 | 216 | 0.0 | 0.0 | 0.00 | 0.00 | 0.00 | 93 | 1010.2 |
| 20260504070408 | 1 | 216 | 0.0 | 0.0 | 0.00 | 0.00 | 0.00 | 92 | 1010.4 |
| 20260504050253 | 0 | 216 | 0.0 | 0.0 | 0.00 | 0.00 | 0.00 | 92 | 1010.5 |
| 20260504045750 | 0 | 216 | 0.0 | 0.0 | 0.00 | 0.00 | 0.00 | 92 | 1010.8 |
| 20260504045245 | 0 | 216 | 0.0 | 0.0 | 0.00 | 0.00 | 0.00 | 92 | 1010.6 |
| 20260504044743 | 0 | 216 | 0.0 | 0.0 | 0.00 | 0.00 | 0.00 | 92 | 1010.8 |
| 20260504044240 | 0 | 216 | 0.0 | 0.0 | 0.00 | 0.00 | 0.00 | 92 | 1010.9 |
| 20260504043737 | 0 | 216 | 0.0 | 0.0 | 0.00 | 0.00 | 0.00 | 92 | 1010.7 |
| 20260504043233 | 0 | 216 | 0.0 | 0.0 | 0.00 | 0.00 | 0.00 | 92 | 1010.6 |
| 20260504042732 | 0 | 216 | 0.0 | 0.0 | 0.00 | 0.00 | 0.00 | 92 | 1010.7 |
| 20260504042227 | -1 | 216 | 0.0 | 0.0 | 0.00 | 0.00 | 0.00 | 91 | 1010.7 |
| 20260504041723 | 0 | 216 | 0.0 | 0.0 | 0.00 | 0.00 | 0.00 | 91 | 1010.8 |
| 20260504041219 | 0 | 216 | 0.0 | 0.0 | 0.00 | 0.00 | 0.00 | 91 | 1010.6 |
| 20260504040711 | 0 | 216 | 0.0 | 0.0 | 0.00 | 0.00 | 0.00 | 91 | 1010.6 |
| 20260504040208 | 0 | 216 | 0.0 | 0.0 | 0.00 | 0.00 | 0.00 | 91 | 1010.3 |
| 20260504035704 | 0 | 216 | 0.0 | 0.0 | 0.00 | 0.00 | 0.00 | 91 | 1010.3 |
| 20260504035202 | 0 | 216 | 0.0 | 0.0 | 0.00 | 0.00 | 0.00 | 90 | 1010.6 |
| 20260504034659 | 0 | 216 | 0.0 | 0.0 | 0.00 | 0.00 | 0.00 | 90 | 1010.5 |
| 20260504034156 | 0 | 216 | 0.0 | 0.0 | 0.00 | 0.00 | 0.00 | 90 | 1010.4 |
| 20260504033654 | 0 | 216 | 0.0 | 0.0 | 0.00 | 0.00 | 0.00 | 90 | 1010.3 |
| 20260504033151 | 0 | 216 | 0.0 | 0.0 | 0.00 | 0.00 | 0.00 | 90 | 1010.5 |
| 20260504032647 | 0 | 216 | 0.0 | 0.0 | 0.00 | 0.00 | 0.00 | 89 | 1010.5 |
| 20260504032144 | 0 | 216 | 0.0 | 0.0 | 0.00 | 0.00 | 0.00 | 89 | 1010.2 |
| 20260504031641 | 0 | 216 | 0.0 | 0.0 | 0.00 | 0.00 | 0.00 | 88 | 1010.2 |
| 20260504031137 | 0 | 216 | 0.0 | 0.0 | 0.00 | 0.00 | 0.00 | 88 | 1010.4 |
| 20260504030634 | 0 | 216 | 0.0 | 0.0 | 0.00 | 0.00 | 0.00 | 88 | 1010.3 |
| 20260504030131 | 0 | 217 | 0.0 | 0.0 | 0.00 | 0.00 | 0.00 | 88 | 1010.4 |
| 20260504025627 | 0 | 215 | 0.0 | 0.0 | 0.00 | 0.00 | 0.00 | 87 | 1010.1 |
| 20260504025124 | 0 | 215 | 0.0 | 0.0 | 0.00 | 0.00 | 0.00 | 87 | 1010.2 |
| 20260504024622 | 0 | 215 | 0.0 | 0.0 | 0.00 | 0.00 | 0.00 | 87 | 1010.2 |
| 20260504024118 | 0 | 215 | 0.0 | 0.0 | 0.00 | 0.00 | 0.00 | 87 | 1010.2 |
| 20260504023615 | 0 | 215 | 0.0 | 0.0 | 0.00 | 0.00 | 0.00 | 86 | 1010.0 |
| 20260504023110 | 0 | 216 | 0.0 | 0.0 | 0.00 | 0.00 | 0.00 | 86 | 1010.3 |
| 20260504022607 | 0 | 214 | 0.0 | 0.0 | 0.00 | 0.00 | 0.00 | 86 | 1010.1 |
| 20260504022103 | 0 | 214 | 0.0 | 0.0 | 0.00 | 0.00 | 0.00 | 85 | 1009.7 |
| 20260504021602 | 0 | 214 | 0.0 | 0.0 | 0.00 | 0.00 | 0.00 | 85 | 1009.8 |
| 20260504021058 | 0 | 214 | 0.0 | 0.0 | 0.00 | 0.00 | 0.00 | 84 | 1010.1 |
| 20260504020555 | 1 | 214 | 0.0 | 0.0 | 0.00 | 0.00 | 0.00 | 84 | 1009.8 |
| 20260504020051 | 1 | 214 | 0.0 | 0.0 | 0.00 | 0.00 | 0.00 | 84 | 1010.0 |
| 20260504015547 | 1 | 214 | 0.0 | 0.0 | 0.00 | 0.00 | 0.00 | 83 | 1009.8 |
| 20260504015043 | 1 | 214 | 0.0 | 0.0 | 0.00 | 0.00 | 0.00 | 82 | 1009.8 |
| 20260504014540 | 1 | 214 | 0.0 | 0.0 | 0.00 | 0.00 | 0.00 | 82 | 1009.7 |
| 20260504014037 | 1 | 214 | 0.0 | 0.0 | 0.00 | 0.00 | 0.00 | 81 | 1009.6 |
| 20260504013535 | 1 | 214 | 0.0 | 0.0 | 0.00 | 0.00 | 0.00 | 81 | 1009.6 |
| 20260504013032 | 1 | 214 | 0.0 | 0.0 | 0.00 | 0.00 | 0.00 | 80 | 1009.6 |
| 20260504012529 | 1 | 214 | 0.0 | 0.0 | 0.00 | 0.00 | 0.00 | 80 | 1009.6 |
| 20260504012022 | 1 | 214 | 0.0 | 0.0 | 0.00 | 0.00 | 0.00 | 79 | 1009.7 |
| 20260504011518 | 1 | 214 | 0.0 | 0.0 | 0.00 | 0.00 | 0.00 | 80 | 1009.5 |
| 20260504011014 | 2 | 214 | 0.0 | 0.0 | 0.00 | 0.00 | 0.00 | 77 | 1009.5 |
| 20260504010510 | 2 | 214 | 0.0 | 0.0 | 0.00 | 0.00 | 0.00 | 77 | 1009.3 |
| 20260504010006 | 2 | 214 | 0.0 | 0.0 | 0.00 | 0.00 | 0.00 | 77 | 1009.3 |
| 20260504005503 | 2 | 216 | 0.0 | 0.0 | 0.00 | 0.00 | 0.00 | 76 | 1009.3 |
| 20260504005001 | 2 | 216 | 0.0 | 0.0 | 0.00 | 0.00 | 0.00 | 74 | 1009.2 |
| 20260504004458 | 2 | 216 | 0.0 | 0.0 | 0.00 | 0.00 | 0.00 | 72 | 1009.0 |
| 20260504003955 | 3 | 216 | 0.0 | 0.0 | 0.00 | 0.00 | 0.00 | 71 | 1008.9 |
| 20260504003451 | 3 | 216 | 0.0 | 0.0 | 0.00 | 0.00 | 0.00 | 70 | 1009.1 |
| 20260504002948 | 3 | 216 | 0.0 | 0.0 | 0.00 | 0.00 | 0.00 | 69 | 1008.8 |
| 20260504002445 | 4 | 216 | 0.0 | 0.0 | 0.00 | 0.00 | 0.00 | 68 | 1008.9 |
| 20260504001942 | 4 | 216 | 0.0 | 0.0 | 0.00 | 0.00 | 0.00 | 66 | 1008.7 |
| 20260504001439 | 5 | 216 | 0.0 | 0.0 | 0.00 | 0.00 | 0.00 | 65 | 1008.8 |
| 20260504000936 | 5 | 216 | 0.0 | 0.0 | 0.00 | 0.00 | 0.00 | 61 | 1008.7 |
| 20260504000433 | 6 | 216 | 0.0 | 0.0 | 0.00 | 0.00 | 0.00 | 61 | 1008.4 |
| 20260503235930 | 7 | 203 | 0.0 | 0.0 | 0.00 | 0.00 | 0.00 | 59 | 1008.5 |
| 20260503235428 | 7 | 251 | 0.0 | 0.0 | 0.00 | 0.00 | 0.00 | 53 | 1008.3 |
| 20260503234925 | 7 | 252 | 0.0 | 0.0 | 0.00 | 0.00 | 0.00 | 51 | 1008.5 |
| 20260503234423 | 8 | 252 | 0.0 | 0.0 | 0.00 | 0.00 | 0.00 | 50 | 1008.3 |
| 20260503233921 | 8 | 266 | 0.0 | 0.0 | 0.00 | 0.00 | 0.00 | 49 | 1008.6 |
| 20260503233417 | 8 | 230 | 0.0 | 1.6 | 0.00 | 0.00 | 0.00 | 50 | 1008.5 |
| 20260503232913 | 8 | 290 | 0.0 | 0.0 | 0.00 | 0.00 | 0.00 | 48 | 1008.3 |
| 20260503232411 | 8 | 285 | 0.0 | 0.0 | 0.00 | 0.00 | 0.00 | 49 | 1008.4 |
| 20260503231908 | 9 | 280 | 0.0 | 0.0 | 0.00 | 0.00 | 0.00 | 46 | 1008.2 |
| 20260503231405 | 9 | 296 | 1.6 | 3.2 | 0.00 | 0.00 | 0.00 | 48 | 1008.1 |
| 20260503230902 | 9 | 334 | 1.6 | 3.2 | 0.00 | 0.00 | 0.00 | 47 | 1008.2 |
| 20260503230358 | 9 | 294 | 1.6 | 1.6 | 0.00 | 0.00 | 0.00 | 47 | 1008.2 |
| 20260503225856 | 9 | 201 | 1.6 | 1.6 | 0.00 | 0.00 | 0.00 | 46 | 1008.2 |
| 20260503225352 | 9 | 55 | 1.6 | 3.2 | 0.00 | 0.00 | 0.00 | 49 | 1008.3 |
| 20260503224848 | 9 | 342 | 3.2 | 3.2 | 0.00 | 0.00 | 0.00 | 45 | 1007.9 |
| 20260503224345 | 10 | 198 | 6.4 | 12.9 | 0.00 | 0.00 | 0.00 | 47 | 1008.0 |
| 20260503223843 | 10 | 8 | 4.8 | 4.8 | 0.00 | 0.00 | 0.00 | 45 | 1008.0 |
| 20260503223341 | 10 | 336 | 3.2 | 3.2 | 0.00 | 0.00 | 0.00 | 44 | 1007.9 |
| 20260503222836 | 10 | 242 | 1.6 | 3.2 | 0.00 | 0.00 | 0.00 | 45 | 1008.0 |
| 20260503222335 | 10 | 301 | 3.2 | 3.2 | 0.00 | 0.00 | 0.00 | 44 | 1008.2 |
| 20260503221832 | 10 | 33 | 4.8 | 8.0 | 0.00 | 0.00 | 0.00 | 45 | 1008.1 |
| 20260503221331 | 10 | 54 | 4.8 | 9.7 | 0.00 | 0.00 | 0.00 | 46 | 1008.0 |
| 20260503220826 | 10 | 217 | 0.0 | 1.6 | 0.00 | 0.00 | 0.00 | 46 | 1008.0 |
| 20260503220324 | 10 | 7 | 6.4 | 9.7 | 0.00 | 0.00 | 0.00 | 46 | 1008.0 |
| 20260503215820 | 10 | 313 | 1.6 | 3.2 | 0.00 | 0.00 | 0.00 | 45 | 1008.1 |
| 20260503215318 | 11 | 20 | 8.0 | 12.9 | 0.00 | 0.00 | 0.00 | 43 | 1007.8 |
| 20260503214816 | 11 | 0 | 1.6 | 1.6 | 0.00 | 0.00 | 0.00 | 45 | 1007.9 |
| 20260503214313 | 11 | 21 | 3.2 | 3.2 | 0.00 | 0.00 | 0.00 | 44 | 1007.7 |
| 20260503213810 | 11 | 155 | 0.0 | 0.0 | 0.00 | 0.00 | 0.00 | 48 | 1007.6 |
| 20260503213307 | 11 | 140 | 6.4 | 9.7 | 0.00 | 0.00 | 0.00 | 44 | 1007.4 |